{"data":{"norad_id":33056,"epoch":"2026-05-25T03:56:31.122240Z","epoch_age_seconds":71505,"freshness":"FRESH","line1":"1 33056U 08030B   26145.16424910  .00000144  00000+0  00000+0 0  9990","line2":"2 33056   0.0805  84.9255 0005132 332.4345 286.5098  1.00273193 52124","mean_motion":1.00273193,"eccentricity":0.0005132,"inclination_deg":0.0805,"raan_deg":84.9255,"arg_perigee_deg":332.4345,"mean_anomaly_deg":286.5098,"bstar":0,"rev_number":5212,"period_min":1436.0767388748,"perigee_km":35764.56151442,"apogee_km":35807.838990175,"semimajor_km":42164.337252297,"source":"CELESTRAK","updated_at":"2026-05-25T13:38:13.859485Z"}}